Regional Weather Roundup
Issued by NWS Mt. Holly, NJ

Home | Current Version | Previous Version | Text Only | Print | Product List | Glossary On
Versions: 1 2 3 4 5 6 7 8 9 10 11 12 13 14 15 16 17 18 19 20 21 22 23 24 25 26 27 28 29 30 31 32 33 34 35 36 37 38 39 40 41 42 43 44 45 46 47 48 49 50
000
ASUS41 KPHI 240912
RWRPHI

REGIONAL WEATHER ROUNDUP
NATIONAL WEATHER SERVICE MOUNT HOLLY NJ
400 AM EST WED JAN 24 2018

NOTE:  "FAIR" INDICATES FEW OR NO CLOUDS BELOW 12,000 FEET WITH NO
SIGNIFICANT WEATHER AND/OR OBSTRUCTIONS TO VISIBILITY.

 * = STATION DOES NOT REPORT PRECIPITATION (E.G. RAIN, SNOW, ETC.)
        OR FOG.

NJZ015>026-241000-
SOUTHERN NEW JERSEY

CITY           SKY/WX    TMP DP  RH WIND       PRES   REMARKS
POMONA         FAIR      42  31  64 SW9       29.86R
WILDWOOD*      CLOUDY    42  31  64 W14       29.91R
MILLVILLE      CLOUDY    41  33  73 W8        29.88R
WRIGHTSTOWN    FAIR      40  30  66 W10       29.80R WCI  34
MOUNT HOLLY    FAIR      41  30  65 W8        29.84R
TRENTON        FAIR      36  29  75 SW6       29.82R WCI  31

$$
NJZ001>014-241000-
NORTHERN NEW JERSEY

CITY           SKY/WX    TMP DP  RH WIND       PRES   REMARKS
SUSSEX         CLOUDY    42  28  57 MISG      29.75R
ANDOVER*         N/A     40  29  64 CALM      29.76R
MORRISTOWN     CLOUDY    41  30  65 SW7       29.78R
NEWARK         MOCLDY    41  30  65 SW9       29.78R
TETERBORO      CLOUDY    43  29  57 W14G22    29.76R
CALDWELL       CLOUDY    42  29  59 W7        29.78R
SOMERVILLE     FAIR      41  30  65 VRB5      29.78R
ALLAIRE*       FAIR      38  30  73 SW7       29.82R WCI  33
TOMS RIVER*    FAIR      33  31  92 SW8       29.84R WCI  26

$$
PAZ043-044-047-054-055-060>062-066>071-241000-
EASTERN PENNSYLVANIA

CITY           SKY/WX    TMP DP  RH WIND       PRES   REMARKS
PHILADELPHIA   CLOUDY    43  30  60 SW13      29.86R
NORTH PHILA    MOCLDY    42  31  64 SW7       29.85R
BLUE BELL*     CLOUDY    36  32  87 CALM      29.86R
DOYLESTOWN     FAIR      40  30  67 W6        29.81R
PERKASIE*      PTSUNNY   39  32  75 W13G20    29.82R WCI  32
POTTSTOWN      CLOUDY    41  29  62 W9G18     29.85R
LANCASTER      CLOUDY    43  29  57 W26G39    29.83S
COATESVILLE    CLOUDY    43  30  61 W15G25    29.85R
READING        CLOUDY    42  32  67 W13G21    29.84R
ALLENTOWN      CLOUDY    41  29  62 W12G18    29.81R
MOUNT POCONO   CLOUDY    33  27  78 W22G31    29.71R WCI  21
HAZLETON       CLOUDY    34  28  80 W9G20     29.81R WCI  26
LEHIGHTON      PTSUNNY   39  30  70 W7        29.82R WCI  34
WILKES BARRE   CLOUDY    37  29  72 W9        29.79R WCI  30

$$
DEZALL-MDZ008-012-015-019-020-241000-
DELAWARE AND EASTERN MARYLAND

CITY           SKY/WX    TMP DP  RH WIND       PRES   REMARKS
WILMINGTON     CLOUDY    44  31  60 W12       29.87R
DOVER          FAIR      38  33  82 SW6       29.90R WCI  34
GEORGETOWN     FAIR      43  29  57 W3        29.93R
EASTON         FAIR      43  29  59 W7        29.97R
PATUXENT       FAIR      42  28  57 NW8       29.95R
OCEAN CITY     FAIR      44  30  57 NW12G20   29.94R
WALLOPS ISLAND FAIR      40  31  70 W5        29.97R
CAMBRIDGE      PTCLDY    41  28  60 W6        29.95R
SALISBURY      FAIR      44  29  55 W7        29.94S

$$
PAZ001-021-NYZ056-072-MDZ011-DCZ001-241000-
OTHER NEARBY LOCATIONS

CITY           SKY/WX    TMP DP  RH WIND       PRES   REMARKS
HARRISBURG     CLOUDY    42  30  62 NW14      29.87R
STATE COLLEGE  CLOUDY    33  28  80 W17G28    29.90R WCI  22
WILLIAMSPORT   MIX PCPN  37  28  70 W18G28    29.87R WCI  27
BINGHAMTON     CLOUDY    28  21  75 NW16G26   29.76R WCI  16
NEW YORK CITY  MOCLDY    43  29  57 VRB7G17   29.78R
BALTIMORE      FAIR      42  29  59 SW7       29.91R
WASHINGTON DC  FAIR      46  28  49 W7        29.94R

$$



USA.gov is the U.S. government's official web portal to all federal, state and local government web resources and services.